FW6664 Weather Reports


Display with metric or nautical units.
time (UTC)temp
F
wind
direction
speed
MPH
gust
MPH
rain 1hr
in
rain 24hr
in
rain mn
in
humidity
%
barometer
mb
20260904210045 79 299 4.0 11.0 0.00 0.00 0.00 33 1017.0
20260904205843 80 273 9.0 0.0 0.00 0.00 0.00 33 1017.0
20260904205535 79 250 4.0 11.0 0.00 0.00 0.00 33 1017.0
20260904205337 79 276 7.0 0.0 0.00 0.00 0.00 33 1017.0
20260904205029 79 210 6.0 10.0 0.00 0.00 0.00 33 1017.0
20260904204834 79 253 8.0 0.0 0.00 0.00 0.00 33 1017.0
20260904204522 79 281 7.0 10.0 0.00 0.00 0.00 33 1017.0
20260904204331 80 216 7.0 0.0 0.00 0.00 0.00 33 1017.0
20260904204054 79 272 5.0 8.0 0.00 0.00 0.00 33 1017.0
20260904203828 80 229 15.0 0.0 0.00 0.00 0.00 33 1017.0
20260904203547 80 286 6.0 11.0 0.00 0.00 0.00 33 1017.0
20260904203329 80 272 10.0 0.0 0.00 0.00 0.00 33 1017.0
20260904203045 79 286 4.0 11.0 0.00 0.00 0.00 33 1017.0
20260904202848 80 231 8.0 0.0 0.00 0.00 0.00 33 1017.0
20260904202519 79 286 5.0 10.0 0.00 0.00 0.00 33 1017.0
20260904202345 79 264 2.0 0.0 0.00 0.00 0.00 33 1017.0
20260904202051 79 237 4.0 10.0 0.00 0.00 0.00 33 1017.0
20260904201841 79 249 5.0 0.0 0.00 0.00 0.00 33 1017.0
20260904201542 79 212 8.0 10.0 0.00 0.00 0.00 33 1017.0
20260904201358 80 250 7.0 0.0 0.00 0.00 0.00 33 1017.0
20260904201023 79 223 6.0 8.0 0.00 0.00 0.00 33 1017.0
20260904200834 80 241 8.0 0.0 0.00 0.00 0.00 33 1017.0
20260904200549 79 233 6.0 8.0 0.00 0.00 0.00 33 1017.0
20260904200355 79 276 9.0 0.0 0.00 0.00 0.00 33 1017.0
20260904200024 79 240 5.0 7.0 0.00 0.00 0.00 33 1017.0
20260904195827 79 270 9.0 0.0 0.00 0.00 0.00 33 1017.0
20260904195517 79 278 3.0 7.0 0.00 0.00 0.00 33 1017.0
20260904195325 79 288 3.0 0.0 0.00 0.00 0.00 33 1017.0
20260904195009 78 209 4.0 7.0 0.00 0.00 0.00 33 1017.0
20260904194901 78 264 3.0 0.0 0.00 0.00 0.00 33 1017.0
20260904194550 78 216 4.0 7.0 0.00 0.00 0.00 33 1017.0
20260904194335 79 243 4.0 0.0 0.00 0.00 0.00 33 1017.0
20260904194035 79 214 5.0 7.0 0.00 0.00 0.00 33 1017.0
20260904193830 79 214 4.0 0.0 0.00 0.00 0.00 33 1017.0
20260904193527 79 217 4.0 7.0 0.00 0.00 0.00 33 1017.0
20260904193347 79 275 8.0 0.0 0.00 0.00 0.00 33 1017.0
20260904193016 79 290 4.0 6.0 0.00 0.00 0.00 33 1017.0
20260904192840 79 260 3.0 0.0 0.00 0.00 0.00 33 1017.0
20260904192511 79 285 3.0 7.0 0.00 0.00 0.00 33 1017.0
20260904192338 79 284 1.0 0.0 0.00 0.00 0.00 33 1017.0
20260904192005 78 263 5.0 7.0 0.00 0.00 0.00 33 1017.0
20260904191833 79 281 8.0 0.0 0.00 0.00 0.00 33 1017.0
20260904191556 78 225 5.0 7.0 0.00 0.00 0.00 33 1017.0
20260904191332 79 249 6.0 0.0 0.00 0.00 0.00 33 1017.0
20260904191052 79 213 5.0 6.0 0.00 0.00 0.00 33 1017.0
20260904190829 79 184 3.0 0.0 0.00 0.00 0.00 33 1017.0
20260904190546 79 234 4.0 8.0 0.00 0.00 0.00 33 1017.0
20260904190345 79 261 4.0 0.0 0.00 0.00 0.00 33 1017.0
20260904190039 79 264 6.0 8.0 0.00 0.00 0.00 33 1017.0
20260904185839 79 278 4.0 0.0 0.00 0.00 0.00 33 1017.0
20260904185532 79 149 4.0 8.0 0.00 0.00 0.00 33 1017.0
20260904185338 79 230 6.0 0.0 0.00 0.00 0.00 33 1017.0
20260904185023 78 287 3.0 6.0 0.00 0.00 0.00 33 1017.0
20260904184853 79 221 4.0 0.0 0.00 0.00 0.00 33 1017.0
20260904184600 78 270 5.0 6.0 0.00 0.00 0.00 33 1017.0
20260904184327 78 289 8.0 0.0 0.00 0.00 0.00 33 1017.0
20260904184049 77 290 5.0 7.0 0.00 0.00 0.00 33 1017.0
20260904183844 78 235 4.0 0.0 0.00 0.00 0.00 33 1017.0
20260904183541 78 297 6.0 7.0 0.00 0.00 0.00 33 1017.0
20260904183324 78 243 2.0 0.0 0.00 0.00 0.00 33 1017.0
20260904183040 78 239 3.0 6.0 0.00 0.00 0.00 33 1017.0
20260904182843 78 215 3.0 0.0 0.00 0.00 0.00 33 1017.0
20260904182533 77 200 3.0 6.0 0.00 0.00 0.00 33 1017.0
20260904182337 78 157 2.0 0.0 0.00 0.00 0.00 33 1017.0
20260904182023 77 222 4.0 6.0 0.00 0.00 0.00 33 1017.0
20260904181833 78 273 6.0 0.0 0.00 0.00 0.00 33 1017.0
20260904181519 77 250 5.0 5.0 0.00 0.00 0.00 33 1017.0
20260904181330 77 298 3.0 0.0 0.00 0.00 0.00 33 1017.0
20260904181013 76 277 3.0 5.0 0.00 0.00 0.00 33 1017.0
20260904180826 77 274 8.0 0.0 0.00 0.00 0.00 33 1017.0
20260904180541 76 292 3.0 5.0 0.00 0.00 0.00 33 1017.0
20260904180341 76 260 4.0 0.0 0.00 0.00 0.00 33 1017.0
20260904180036 76 252 4.0 5.0 0.00 0.00 0.00 33 1017.0
20260904175837 77 214 3.0 0.0 0.00 0.00 0.00 33 1017.0
20260904175528 76 223 2.0 3.0 0.00 0.00 0.00 33 1017.0
20260904175335 76 198 3.0 0.0 0.00 0.00 0.00 33 1017.0
20260904170336 73 277 3.0 0.0 0.00 0.00 0.00 33 1017.0
20260904170049 72 149 2.0 2.0 0.00 0.00 0.00 33 1017.0
20260904151332 66 248 0.0 0.0 0.00 0.00 0.00 33 1017.0
20260904151018 65 248 2.0 2.0 0.00 0.00 0.00 33 1017.0
20260904150829 65 249 4.0 0.0 0.00 0.00 0.00 33 1017.0
20260904150512 65 250 1.0 1.0 0.00 0.00 0.00 33 1017.0
20260904150407 65 250 3.0 0.0 0.00 0.00 0.00 33 1017.0
20260904150049 64 251 0.0 0.0 0.00 0.00 0.00 33 1017.0
20260904090520 62 233 0.0 0.0 0.00 0.00 0.00 33 1017.0
20260904090333 63 233 0.0 0.0 0.00 0.00 0.00 33 1017.0
20260904090011 62 233 0.0 0.0 0.00 0.00 0.00 33 1017.0
20260904045832 64 176 0.0 0.0 0.00 0.00 0.00 33 1017.0
20260904045600 64 176 0.0 0.0 0.00 0.00 0.00 33 1017.0
20260904045503 64 176 0.0 1.0 0.00 0.00 0.00 33 1017.0
20260904045412 64 176 0.0 0.0 0.00 0.00 0.00 33 1017.0
20260904045113 64 176 0.0 1.0 0.00 0.00 0.00 33 1017.0
20260904044834 64 176 2.0 0.0 0.00 0.00 0.00 33 1017.0
20260904044535 64 176 0.0 1.0 0.00 0.00 0.00 33 1017.0
20260904044329 64 176 0.0 0.0 0.00 0.00 0.00 33 1017.0
20260904044023 64 176 0.0 0.0 0.00 0.00 0.00 33 1017.0
20260904043844 64 176 0.0 0.0 0.00 0.00 0.00 33 1017.0
20260904043613 64 176 0.0 1.0 0.00 0.00 0.00 33 1017.0
20260904043344 64 176 0.0 0.0 0.00 0.00 0.00 33 1017.0
20260904043049 64 176 0.0 1.0 0.00 0.00 0.00 33 1017.0
20260904042838 65 176 0.0 0.0 0.00 0.00 0.00 33 1017.0
20260904042542 64 176 0.0 1.0 0.00 0.00 0.00 33 1017.0
20260904042334 65 176 0.0 0.0 0.00 0.00 0.00 33 1017.0
20260904042037 64 176 1.0 1.0 0.00 0.00 0.00 33 1017.0
20260904041830 65 176 2.0 0.0 0.00 0.00 0.00 33 1017.0
20260904041529 64 176 0.0 0.0 0.00 0.00 0.00 33 1017.0
20260904041326 65 176 0.0 0.0 0.00 0.00 0.00 33 1017.0
20260904041058 64 176 0.0 0.0 0.00 0.00 0.00 33 1017.0
20260904040839 65 176 0.0 0.0 0.00 0.00 0.00 33 1017.0
20260904040551 64 176 0.0 1.0 0.00 0.00 0.00 33 1017.0
20260904040336 65 176 0.0 0.0 0.00 0.00 0.00 33 1017.0
20260904040043 65 176 0.0 1.0 0.00 0.00 0.00 33 1017.0
20260904035830 65 176 1.0 0.0 0.00 0.00 0.00 33 1017.0
20260904035539 65 176 0.0 1.0 0.00 0.00 0.00 33 1017.0
20260904035347 65 176 0.0 0.0 0.00 0.00 0.00 33 1017.0
20260904035029 65 176 0.0 1.0 0.00 0.00 0.00 33 1017.0
20260904034841 65 176 0.0 0.0 0.00 0.00 0.00 33 1017.0
20260904034539 65 176 0.0 1.0 0.00 0.00 0.00 33 1017.0
20260904034353 65 176 0.0 0.0 0.00 0.00 0.00 33 1017.0
20260904034045 65 176 0.0 1.0 0.00 0.00 0.00 33 1017.0
20260904033829 66 176 3.0 0.0 0.00 0.00 0.00 33 1017.0
20260904033542 65 176 0.0 0.0 0.00 0.00 0.00 33 1017.0
20260904033340 66 176 1.0 0.0 0.00 0.00 0.00 33 1017.0
20260904033009 65 176 0.0 0.0 0.00 0.00 0.00 33 1017.0
20260904032838 66 176 0.0 0.0 0.00 0.00 0.00 33 1017.0
20260904032600 65 176 0.0 2.0 0.00 0.00 0.00 33 1017.0
20260904032502 65 176 0.0 2.0 0.00 0.00 0.00 33 1017.0
20260904032353 66 176 1.0 0.0 0.00 0.00 0.00 33 1017.0
20260904032033 66 176 0.0 3.0 0.00 0.00 0.00 33 1017.0
20260904031828 66 176 0.0 0.0 0.00 0.00 0.00 33 1017.0
20260904031528 66 176 0.0 3.0 0.00 0.00 0.00 33 1017.0
20260904031327 66 176 2.0 0.0 0.00 0.00 0.00 33 1017.0
20260904031021 66 179 1.0 1.0 0.00 0.00 0.00 33 1017.0
20260904030903 67 179 3.0 0.0 0.00 0.00 0.00 33 1017.0
20260904030546 66 179 0.0 2.0 0.00 0.00 0.00 33 1017.0
20260904030336 67 179 0.0 0.0 0.00 0.00 0.00 33 1017.0
20260904030040 67 179 2.0 2.0 0.00 0.00 0.00 33 1017.0
20260904025853 67 241 3.0 0.0 0.00 0.00 0.00 33 1017.0
20260904025515 67 243 1.0 2.0 0.00 0.00 0.00 33 1017.0
20260904025330 67 243 3.0 0.0 0.00 0.00 0.00 33 1017.0
20260904025010 67 243 0.0 3.0 0.00 0.00 0.00 33 1017.0
20260904024827 68 243 1.0 0.0 0.00 0.00 0.00 33 1017.0
20260904024506 67 243 1.0 3.0 0.00 0.00 0.00 33 1017.0
20260904024344 68 243 3.0 0.0 0.00 0.00 0.00 33 1017.0
20260904024057 67 243 2.0 5.0 0.00 0.00 0.00 33 1017.0
20260904023840 68 243 2.0 0.0 0.00 0.00 0.00 33 1017.0
20260904023551 68 243 3.0 5.0 0.00 0.00 0.00 33 1017.0
20260904023336 68 247 4.0 0.0 0.00 0.00 0.00 33 1017.0
20260904023046 68 246 1.0 4.0 0.00 0.00 0.00 33 1017.0
20260904022833 68 247 4.0 0.0 0.00 0.00 0.00 33 1017.0
20260904022541 68 246 1.0 4.0 0.00 0.00 0.00 33 1017.0
20260904022331 69 247 3.0 0.0 0.00 0.00 0.00 33 1017.0
20260904022019 69 256 3.0 4.0 0.00 0.00 0.00 33 1017.0
20260904021849 69 252 1.0 0.0 0.00 0.00 0.00 33 1017.0
20260904021546 69 251 2.0 4.0 0.00 0.00 0.00 33 1017.0
20260904021325 70 255 1.0 0.0 0.00 0.00 0.00 33 1017.0
20260904021041 69 261 2.0 3.0 0.00 0.00 0.00 33 1017.0
20260904020843 70 282 2.0 0.0 0.00 0.00 0.00 33 1017.0
20260904020540 70 282 0.0 4.0 0.00 0.00 0.00 33 1017.0
20260904020402 70 282 2.0 0.0 0.00 0.00 0.00 33 1017.0
20260904020009 70 226 3.0 4.0 0.00 0.00 0.00 33 1017.0
20260904015836 71 221 4.0 0.0 0.00 0.00 0.00 33 1017.0
20260904015559 71 211 2.0 6.0 0.00 0.00 0.00 33 1017.0
20260904015503 71 211 2.0 6.0 0.00 0.00 0.00 33 1017.0
20260904015332 71 211 2.0 0.0 0.00 0.00 0.00 33 1017.0
20260904015055 71 210 2.0 6.0 0.00 0.00 0.00 33 1017.0
20260904014849 72 250 2.0 0.0 0.00 0.00 0.00 33 1017.0
20260904014530 71 264 3.0 4.0 0.00 0.00 0.00 33 1017.0
20260904014327 72 231 4.0 0.0 0.00 0.00 0.00 33 1017.0
20260904014010 71 256 2.0 5.0 0.00 0.00 0.00 33 1017.0
20260904013825 72 250 2.0 0.0 0.00 0.00 0.00 33 1017.0
20260904013559 72 213 3.0 5.0 0.00 0.00 0.00 33 1017.0
20260904013340 72 295 3.0 0.0 0.00 0.00 0.00 33 1017.0
20260904013050 71 292 2.0 5.0 0.00 0.00 0.00 33 1017.0
20260904012900 72 225 1.0 0.0 0.00 0.00 0.00 33 1017.0
20260904012525 71 225 2.0 5.0 0.00 0.00 0.00 33 1017.0
20260904012333 72 216 4.0 0.0 0.00 0.00 0.00 33 1017.0
20260904012019 72 232 4.0 5.0 0.00 0.00 0.00 33 1017.0
20260904011833 73 270 2.0 0.0 0.00 0.00 0.00 33 1017.0
20260904011551 72 244 3.0 4.0 0.00 0.00 0.00 33 1017.0
20260904011331 73 244 1.0 0.0 0.00 0.00 0.00 33 1017.0
20260904011008 73 264 3.0 5.0 0.00 0.00 0.00 33 1017.0
20260904010827 73 260 3.0 0.0 0.00 0.00 0.00 33 1017.0
20260904010559 73 239 2.0 5.0 0.00 0.00 0.00 33 1017.0
20260904010502 73 254 3.0 5.0 0.00 0.00 0.00 33 1017.0
20260904010324 74 270 6.0 0.0 0.00 0.00 0.00 33 1017.0
20260904010107 74 235 3.0 6.0 0.00 0.00 0.00 33 1017.0
20260904005842 75 238 5.0 0.0 0.00 0.00 0.00 33 1017.0
20260904005525 74 314 4.0 9.0 0.00 0.00 0.00 33 1017.0
20260904005337 75 306 5.0 0.0 0.00 0.00 0.00 33 1017.0
20260904005019 74 296 5.0 9.0 0.00 0.00 0.00 33 1017.0
20260904004831 75 282 8.0 0.0 0.00 0.00 0.00 33 1017.0
20260904004512 75 247 3.0 6.0 0.00 0.00 0.00 33 1017.0
20260904004327 75 301 2.0 0.0 0.00 0.00 0.00 33 1017.0
20260904004004 75 203 4.0 7.0 0.00 0.00 0.00 33 1017.0
20260904003842 75 243 5.0 0.0 0.00 0.00 0.00 33 1017.0
20260904003556 75 292 5.0 7.0 0.00 0.00 0.00 33 1017.0
20260904003339 75 214 5.0 0.0 0.00 0.00 0.00 33 1017.0
20260904003046 75 285 5.0 6.0 0.00 0.00 0.00 33 1017.0
20260904002832 75 286 9.0 0.0 0.00 0.00 0.00 33 1017.0
20260904002540 75 217 5.0 6.0 0.00 0.00 0.00 33 1017.0
20260904002326 76 303 7.0 0.0 0.00 0.00 0.00 33 1017.0
20260904002034 75 301 5.0 7.0 0.00 0.00 0.00 33 1017.0
20260904001845 76 271 8.0 0.0 0.00 0.00 0.00 33 1017.0
20260904001529 75 270 5.0 8.0 0.00 0.00 0.00 33 1017.0
20260904001342 76 293 8.0 0.0 0.00 0.00 0.00 33 1017.0
20260904001023 75 297 6.0 8.0 0.00 0.00 0.00 33 1017.0
20260904000859 75 288 9.0 0.0 0.00 0.00 0.00 33 1017.0
20260904000553 75 272 7.0 8.0 0.00 0.00 0.00 33 1017.0
20260904000355 75 270 10.0 0.0 0.00 0.00 0.00 33 1017.0
20260904000037 75 262 4.0 9.0 0.00 0.00 0.00 33 1017.0
20260903235828 75 227 8.0 0.0 0.00 0.00 0.00 33 1017.0
20260903235521 75 216 7.0 9.0 0.00 0.00 0.00 33 1017.0
20260903235346 76 223 7.0 0.0 0.00 0.00 0.00 33 1017.0
20260903235014 76 237 4.0 7.0 0.00 0.00 0.00 33 1017.0
20260903234842 76 275 10.0 0.0 0.00 0.00 0.00 33 1017.0
20260903234508 76 223 6.0 9.0 0.00 0.00 0.00 33 1017.0
20260903234338 77 210 8.0 0.0 0.00 0.00 0.00 33 1017.0
20260903234059 76 246 5.0 9.0 0.00 0.00 0.00 33 1017.0
20260903234003 76 264 6.0 9.0 0.00 0.00 0.00 33 1017.0
20260903233838 77 294 5.0 0.0 0.00 0.00 0.00 33 1017.0
20260903233553 76 284 5.0 9.0 0.00 0.00 0.00 33 1017.0
20260903233334 77 276 4.0 0.0 0.00 0.00 0.00 33 1017.0
20260903233048 76 205 7.0 9.0 0.00 0.00 0.00 33 1017.0
20260903232831 77 215 10.0 0.0 0.00 0.00 0.00 33 1017.0
20260903232542 76 291 3.0 10.0 0.00 0.00 0.00 33 1017.0
20260903232327 76 286 6.0 0.0 0.00 0.00 0.00 33 1017.0
20260903232037 76 200 6.0 10.0 0.00 0.00 0.00 33 1017.0
20260903231846 77 206 6.0 0.0 0.00 0.00 0.00 33 1017.0
20260903231529 76 281 3.0 10.0 0.00 0.00 0.00 33 1017.0
20260903231342 77 230 6.0 0.0 0.00 0.00 0.00 33 1017.0
20260903231023 77 246 4.0 10.0 0.00 0.00 0.00 33 1017.0
20260903230837 78 218 10.0 0.0 0.00 0.00 0.00 33 1017.0
20260903230517 77 267 4.0 8.0 0.00 0.00 0.00 33 1017.0
20260903230334 77 284 8.0 0.0 0.00 0.00 0.00 33 1017.0
20260903230015 77 225 4.0 7.0 0.00 0.00 0.00 33 1017.0
20260903225831 77 255 6.0 0.0 0.00 0.00 0.00 33 1017.0
20260903225511 76 260 6.0 7.0 0.00 0.00 0.00 33 1017.0
20260903225329 77 203 6.0 0.0 0.00 0.00 0.00 33 1017.0
20260903225101 77 233 5.0 10.0 0.00 0.00 0.00 33 1017.0
20260903225003 77 234 5.0 10.0 0.00 0.00 0.00 33 1017.0
20260903224844 77 152 8.0 0.0 0.00 0.00 0.00 33 1017.0
20260903224553 77 143 4.0 11.0 0.00 0.00 0.00 33 1017.0
20260903224339 77 211 3.0 0.0 0.00 0.00 0.00 33 1017.0
20260903224044 76 275 8.0 11.0 0.00 0.00 0.00 33 1017.0
20260903223856 77 254 12.0 0.0 0.00 0.00 0.00 33 1017.0
20260903223520 76 245 5.0 9.0 0.00 0.00 0.00 33 1017.0
20260903223333 77 250 7.0 0.0 0.00 0.00 0.00 33 1017.0
20260903223017 76 207 8.0 13.0 0.00 0.00 0.00 33 1017.0
20260903222830 77 151 5.0 0.0 0.00 0.00 0.00 33 1017.0
20260903222510 77 211 7.0 13.0 0.00 0.00 0.00 33 1017.0
20260903222325 78 236 6.0 0.0 0.00 0.00 0.00 33 1017.0
20260903222041 77 274 6.0 10.0 0.00 0.00 0.00 33 1017.0
20260903221841 78 247 4.0 0.0 0.00 0.00 0.00 33 1017.0
20260903221531 78 174 5.0 8.0 0.00 0.00 0.00 33 1017.0
20260903221337 78 280 8.0 0.0 0.00 0.00 0.00 33 1017.0
20260903221024 78 250 8.0 10.0 0.00 0.00 0.00 33 1017.0
20260903220836 78 294 10.0 0.0 0.00 0.00 0.00 33 1017.0
20260903220515 78 255 4.0 10.0 0.00 0.00 0.00 33 1017.0
20260903220331 78 249 6.0 0.0 0.00 0.00 0.00 33 1017.0
20260903220009 78 248 4.0 9.0 0.00 0.00 0.00 33 1017.0
20260903215827 78 246 9.0 0.0 0.00 0.00 0.00 33 1017.0
20260903215559 78 240 6.0 9.0 0.00 0.00 0.00 33 1017.0
20260903215503 78 219 6.0 9.0 0.00 0.00 0.00 33 1017.0
20260903215342 79 197 11.0 0.0 0.00 0.00 0.00 33 1017.0
20260903215033 78 274 8.0 9.0 0.00 0.00 0.00 33 1017.0
20260903214840 79 255 6.0 0.0 0.00 0.00 0.00 33 1017.0
20260903214533 78 236 6.0 9.0 0.00 0.00 0.00 33 1017.0
20260903214337 78 254 10.0 0.0 0.00 0.00 0.00 33 1017.0
20260903214023 77 268 8.0 9.0 0.00 0.00 0.00 33 1017.0
20260903213835 78 227 11.0 0.0 0.00 0.00 0.00 33 1017.0
20260903213521 78 158 5.0 10.0 0.00 0.00 0.00 33 1017.0
20260903213332 79 215 8.0 0.0 0.00 0.00 0.00 33 1017.0
20260903213019 78 266 6.0 10.0 0.00 0.00 0.00 33 1017.0
20260903212829 78 277 9.0 0.0 0.00 0.00 0.00 33 1017.0
20260903212510 77 221 6.0 8.0 0.00 0.00 0.00 33 1017.0
20260903212345 77 279 6.0 0.0 0.00 0.00 0.00 33 1017.0
20260903212059 77 236 4.0 13.0 0.00 0.00 0.00 33 1017.0
20260903212003 77 229 4.0 13.0 0.00 0.00 0.00 33 1017.0
20260903211841 77 215 9.0 0.0 0.00 0.00 0.00 33 1017.0
20260903211557 77 232 10.0 13.0 0.00 0.00 0.00 33 1017.0
20260903211337 77 267 3.0 0.0 0.00 0.00 0.00 33 1017.0
20260903211047 77 238 7.0 11.0 0.00 0.00 0.00 33 1017.0
20260903210833 78 244 6.0 0.0 0.00 0.00 0.00 33 1017.0
20260903210541 77 263 3.0 10.0 0.00 0.00 0.00 33 1017.0
20260903210330 78 207 4.0 0.0 0.00 0.00 0.00 33 1017.0